Flag for U.S.A. Weather past 2 weeks in San Jose, California, U.S.A.

Now
71 °F

Partly sunny.


Feels Like: 75 °F
Forecast: 62 / 79 °F
Wind: 7 mph from Northwest

Location: San Jose International Airport

Current Time: Aug 29, 2014 at 8:07:09 PM

Latest Report: Aug 29, 2014 at 6:53 PM


Visibility: 10 mi

Pressure: 29.89 "Hg

Humidity: 66%

Dew point: 59 °F

Location of San JoseLocation

Historic Weather in San Jose — Graph

°F

San Jose temperature yesterday

Maximum temperature yesterday: 81 °F (at 3:53 PM)
Minimum temperature yesterday: 60 °F (at 4:53 AM)
Average temperature yesterday: 68 °F

Past Weeks' High & Low Weather Summary

 TemperatureHumidityPressure
High82 °F (Aug 27, 2:53 PM)90% (Aug 17, 3:53 AM)30.07 "Hg (Aug 17, 3:53 AM)
Low57 °F (Aug 26, 5:53 AM)35% (Aug 20, 3:53 PM)29.79 "Hg (Aug 19, 4:53 PM)
Average67 °F69%29.93 "Hg
* Reported Aug 14 6:53 PM — Aug 29 6:53 PM, San Jose, Weather by CustomWeather, © 2014

Note: Actual official high and low records may vary slightly from our data, if they occured in-between our weather recording intervals... More about our weather records

Advertising

San Jose weather history for previous 24 hours

 ConditionsComfort  
Time TempWeatherWind HumidityBarometerVisibility
6:53 PM
Aug 29
71 °FPartly sunny.7 mph66%29.89 "Hg10 mi
5:53 PM72 °FBroken clouds.9 mph66%29.90 "Hg10 mi
4:53 PM73 °FBroken clouds.12 mph59%29.89 "Hg10 mi
3:53 PM73 °FBroken clouds.13 mph64%29.89 "Hg10 mi
2:53 PM73 °FBroken clouds.21 mph64%29.89 "Hg10 mi
1:53 PM82 °FBroken clouds.7 mph41%29.87 "Hg10 mi
11:53 AM74 °FBroken clouds.6 mph57%29.92 "Hg10 mi
10:53 AM70 °FBroken clouds.5 mph68%29.94 "Hg9 mi
9:53 AM66 °FBroken clouds.No wind75%29.96 "Hg8 mi
8:53 AM64 °FMostly cloudy.No wind81%29.95 "Hg7 mi
7:53 AM63 °FMostly cloudy.No wind84%29.94 "Hg7 mi
6:53 AM62 °FMostly cloudy.No wind86%29.93 "Hg7 mi
5:53 AM62 °FMostly cloudy.No wind86%29.94 "Hg10 mi
4:53 AM62 °FOvercast.5 mph86%29.94 "Hg10 mi
3:53 AM62 °FOvercast.3 mph86%29.94 "Hg10 mi
2:53 AM61 °FOvercast.3 mph90%29.95 "Hg10 mi
1:53 AM61 °FClear.3 mph90%29.96 "Hg8 mi
12:53 AM61 °FClear.3 mph90%29.96 "Hg10 mi
11:53 PM
Aug 28
62 °FClear.3 mph86%29.97 "Hg10 mi
10:53 PM63 °FClear.7 mph87%29.97 "Hg10 mi
9:53 PM65 °FClear.9 mph85%29.97 "Hg10 mi
8:53 PM67 °FClear.7 mph79%29.96 "Hg10 mi
Weather by CustomWeather, © 2014

See weather overviewHow to use our weather pages